Location: C.E.K. Mees Observatory
(42.7003°N, 77.4088°W)
Time: 12:11:30
(UTC-04:00)

Vanguard 1 - Visible Passes

Search period start: 19 October 2017 00:00
Search period end: 29 October 2017 00:00
Orbit: 650 x 3834 km, 34.3° (Epoch: 18 October)

Date Brightness Start Highest point End Pass type
(mag) Time Alt. Az. Time Alt. Az. Time Alt. Az.
19 Oct 13.4 01:10:35 28° E 01:10:35 28° E 01:19:48 10° E visible
19 Oct 12.5 03:23:18 65° S 03:24:20 66° S 03:47:32 10° E visible
19 Oct 13.0 05:36:00 26° W 05:50:24 62° SSW 06:12:36 10° ESE visible
20 Oct 13.2 01:30:23 34° ESE 01:30:23 34° ESE 01:41:39 10° E visible
20 Oct 12.4 03:43:06 63° SSW 03:45:43 67° S 04:09:03 10° ESE visible
20 Oct 13.1 05:55:48 21° W 06:11:43 58° SSW 06:33:27 10° SE visible
21 Oct 13.1 01:50:11 40° ESE 01:50:11 40° ESE 02:03:25 10° E visible
21 Oct 12.4 04:02:54 58° SW 04:07:08 67° S 04:30:28 10° ESE visible
21 Oct 13.2 06:15:37 16° W 06:32:56 52° SSW 06:54:04 10° SE visible
22 Oct 12.9 02:10:02 46° ESE 02:10:02 46° ESE 02:25:07 10° E visible
22 Oct 12.5 04:22:45 52° WSW 04:28:33 65° S 04:51:45 10° ESE visible
22 Oct 13.3 06:35:28 12° W 06:54:01 46° SSW 07:14:22 10° SSE visible
23 Oct 13.9 00:17:11 13° E 00:17:11 13° E 00:18:35 10° E visible
23 Oct 12.7 02:29:55 52° ESE 02:29:55 52° ESE 02:46:46 10° E visible
23 Oct 12.6 04:42:38 45° WSW 04:49:57 61° SSW 05:12:52 10° ESE visible
23 Oct 13.4 06:56:16 10° W 07:14:58 39° SW 07:34:20 10° SSE visible
24 Oct 13.8 00:37:06 16° E 00:37:06 16° E 00:40:27 10° E visible
24 Oct 12.6 02:49:50 58° SE 02:49:50 58° SE 03:08:21 10° ESE visible
24 Oct 12.7 05:02:33 38° WSW 05:11:17 56° SSW 05:33:47 10° SE visible
25 Oct 13.6 00:57:03 20° E 00:57:03 20° E 01:02:13 10° E visible
25 Oct 12.5 03:09:47 62° SSE 03:09:47 62° SSE 03:29:50 10° ESE visible
25 Oct 12.8 05:22:30 32° WSW 05:32:31 51° SSW 05:54:25 10° SE visible
26 Oct 13.5 01:17:02 25° E 01:17:02 25° E 01:23:56 10° E visible
26 Oct 12.4 03:29:46 62° S 03:29:46 62° S 03:51:11 10° ESE visible
26 Oct 13.0 05:42:30 26° W 05:53:41 44° SSW 06:14:44 10° SSE visible
27 Oct 13.3 01:37:04 29° ESE 01:37:04 29° ESE 01:45:36 10° E visible
27 Oct 12.4 03:49:48 59° SSW 03:50:02 59° SSW 04:12:21 10° ESE visible
27 Oct 13.1 06:02:32 21° W 06:14:44 38° SW 06:34:39 10° SSE visible
28 Oct 13.2 01:57:07 33° ESE 01:57:07 33° ESE 02:07:12 10° ESE visible
28 Oct 12.5 04:09:52 53° SSW 04:11:19 54° SSW 04:33:17 10° SE visible
28 Oct 13.3 06:22:36 16° W 06:35:43 31° SW 06:54:04 10° SSE visible
